Regional Weather Roundup
Issued by NWS

Home | Current Version | Previous Version | Graphics & Text | Print | Product List | Glossary On
Versions: 1 2 3 4 5 6 7 8 9 10 11 12 13 14 15 16 17 18 19 20 21 22 23 24 25 26 27 28 29 30 31 32 33 34 35 36 37 38 39 40 41 42 43 44 45 46 47 48 49 50
483
ASUS43 KMKX 040121
RWRWI

WISCONSIN REGIONAL WEATHER ROUNDUP
NATIONAL WEATHER SERVICE MILWAUKEE/SULLIVAN WI
700 PM CST SAT DEC 03 2016

NOTE: "FAIR" INDICATES FEW OR NO CLOUDS BELOW 12,000 FEET WITH NO
SIGNIFICANT WEATHER AND/OR OBSTRUCTIONS TO VISIBILITY.

WIZ001-002-006>008-014>016-023>028-040200-
NORTHWEST WISCONSIN

CITY           SKY/WX    TMP DP  RH WIND       PRES   REMARKS
SUPERIOR ARPT  CLOUDY    31  21  67 S8        30.22F WCI  23
ASHLAND        CLOUDY    30  25  81 SE5       30.23F WCI  25
HAYWARD        CLOUDY    29  19  66 S6        30.21F WCI  23
SIREN          CLOUDY    30  21  68 S6        30.21F WCI  24
CUMBERLAND     CLOUDY    28  19  69 S8        30.21F WCI  20
RICE LAKE      CLOUDY    29  21  71 S7        30.23F WCI  22
CHETEK         CLOUDY    29  22  74 S3        30.23F
LADYSMITH      CLOUDY    30  24  79 S5        30.23F WCI  25
EAU CLAIRE     CLOUDY    29  21  72 S5        30.23F WCI  24
MENOMONIE      CLOUDY    29  23  78 E5        30.23F WCI  24
NEW RICHMOND   CLOUDY    29  22  75 SE3       30.22S
OSCEOLA        CLOUDY    30  22  74 SE5       30.24F WCI  25
$$

WIZ003>005-009-010-017-018-040200-
NORTH CENTRAL WISCONSIN

CITY           SKY/WX    TMP DP  RH WIND       PRES   REMARKS
MANITOWISH WTR CLOUDY    27  24  87 S7        30.19F WCI  19
ARBOR VITAE    CLOUDY    29  23  78 S3        30.20F
WOODRUFF       CLOUDY    29  23  78 S3        30.20F
RHINELANDER    CLOUDY    28  20  71 S7        30.22S WCI  21
EAGLE RIVER    CLOUDY    27  19  72 CALM      30.20F
LAND O LAKES   CLOUDY    28  22  76 CALM      30.21F
PHILLIPS       CLOUDY    28  22  79 CALM      30.20F
TOMAHAWK       CLOUDY    28  19  71 SW3       30.23S
MEDFORD        CLOUDY    28  21  76 S7        30.21F WCI  20
MERRILL        CLOUDY    29  23  78 SW3       30.24S
$$

WIZ029-030-035-036-043>047-040200-
CENTRAL WISCONSIN

CITY           SKY/WX    TMP DP  RH WIND       PRES   REMARKS
WAUSAU         CLOUDY    29  21  72 W5        30.23F WCI  24
MOSINEE        CLOUDY    28  23  80 S6        30.25F WCI  22
MARSHFIELD     CLOUDY    28  21  75 CALM      30.23F
STEVENS POINT  CLOUDY    28  20  72 SW3       30.25F
WAUPACA        CLOUDY    32  23  69 CALM      30.27S
WAUTOMA        CLOUDY    29  23  78 CALM      30.27F
WISC RAPIDS    CLOUDY    30  22  72 CALM      30.26F
CAMP DOUGLAS   CLOUDY    30  25  80 CALM      30.25F
$$

WIZ011>013-019>022-031-037>040-048>050-040200-
NORTHEAST WISCONSIN

CITY           SKY/WX    TMP DP  RH WIND       PRES   REMARKS
ANTIGO         CLOUDY    26  21  79 W6        30.22F WCI  20
SHAWANO        CLOUDY    32  24  70 CALM      30.27F
OCONTO         CLOUDY    31  21  65 CALM      30.28S
STURGEON BAY   CLOUDY    31  24  75 SW12      30.28S WCI  22
GREEN BAY      CLOUDY    33  25  72 CALM      30.27F
MANITOWOC      CLOUDY    32  23  69 SW3       30.28F
APPLETON       CLOUDY    30  21  69 VRB3      30.25F
CLINTONVILLE   CLOUDY    32  23  69 SW3       30.26F
OSHKOSH        CLOUDY    30  21  69 W3        30.26F
$$

WIZ032>034-041-042-053>061-040200-
SOUTHWEST WISCONSIN

CITY           SKY/WX    TMP DP  RH WIND       PRES   REMARKS
LA CROSSE      CLOUDY    34  26  72 E5        30.25F WCI  30
SPARTA         CLOUDY    31  26  83 CALM      30.26F
VIROQUA        CLOUDY    31  26  84 SE5       30.21F WCI  26
BOSCOBEL       CLOUDY    34  26  72 CALM      30.27F
PRAIRIE DU CHI CLOUDY    33  26  74 E3        30.25F
PLATTEVILLE    PTCLDY    32  30  90 E6        30.25F WCI  27
$$

WIZ056-057-062-063-064-067-068-040200-
SOUTH CENTRAL WISCONSIN

CITY           SKY/WX    TMP DP  RH WIND       PRES   REMARKS
REEDSBURG      CLOUDY    31  25  79 CALM      30.26S
BARABOO/DELLS  CLOUDY    31  24  74 CALM      30.26S
LONE ROCK      CLOUDY    32  27  81 NE3       30.27F
MINERAL POINT  PTCLDY    32  30  93 E3        30.24F
MADISON        CLOUDY    32  23  69 CALM      30.27S
MIDDLETON      CLOUDY    33  27  79 CALM      30.27S
WATERTOWN      CLOUDY    30  26  86 CALM      30.27S
MONROE         MOCLDY    32  28  86 SE5       30.25F WCI  27
JANESVILLE     CLOUDY    34  28  80 CALM      30.27F
$$

WIZ051-052-058>065-066-070>072-040200-
SOUTHEAST WISCONSIN

CITY           SKY/WX    TMP DP  RH WIND       PRES   REMARKS
MILWAUKEE      CLOUDY    33  20  58 NW3       30.29S
WAUKESHA       CLOUDY    28  21  74 CALM      30.29F
MILWAUKEE/TIMM CLOUDY    30  19  64 CALM      30.31S
RACINE         CLOUDY    32  23  69 CALM      30.31S
BURLINGTON     CLOUDY    31  26  81 CALM      30.29S
KENOSHA        CLOUDY    31  25  78 NE3       30.29F
FOND DU LAC    CLOUDY    30  20  66 NW3       30.27F
SHEBOYGAN      CLOUDY    30  22  72 SW3       30.29S
WEST BEND      CLOUDY    30  25  80 CALM      30.28S
JUNEAU         CLOUDY    29  24  81 CALM      30.28F
$$

LSZ147-162-040200-
LAKE SUPERIOR

STATION/POSITION TIME  TEMP    WIND        PRES    WAVE
                       AIR SEA DIR/SP/G            HT/PER
                 (UTC) (F)     (DEG/KT/KT) (MB)    (FT/S)
DEVILS ISLAND    0000   33     200/  4/  4 1024.5F
PORT WING        0040   31     160/  2/  3 1023.7F
SAXON HARBOR     0040   32     180/  2/  4 1023.7F
$$

LMZ867-665-643>646-040200-
LAKE MICHIGAN

STATION/POSITION TIME  TEMP    WIND        PRES    WAVE
                       AIR SEA DIR/SP/G            HT/PER
                 (UTC) (F)     (DEG/KT/KT) (MB)    (FT/S)
CHAMBERS ISLAND  0040   34     170/  4/  9 1024.0F
NORTHPORT PIER   0040   34     220/  4/ 11 1024.4F
SISTER BAY       0023   34     200/  9/ 11   N/A
ALGOMA LAKESHORE 2321          240/  6/  7   N/A
KEWAUNEE LAKESHO 0054   32     270/  4/  6 1024.9F
SHEBOYGAN LAKESH 0100   32     240/  7/  8 1026.4S
PORT WASHINGTON  0030   32      10/  1/  3 1026.8F
MILWAUKEE LAKESH 0100   32     300/  3/  4   N/A
S MID LAKE BUOY  2350   35 48  270/ 10/ 14 1026.1F   1/ 3
KENOSHA   LAKESH 0000   32     310/  3/  5 1026.1
$$

TC  - TEMPERATURE IN CELSIUS
VSB - VISIBILITY IN STATUTE MILES
WCI - WIND CHILL INDEX
HX  - HEAT INDEX





USA.gov is the U.S. government's official web portal to all federal, state and local government web resources and services.